Regional Weather Roundup
Issued by NWS Wakefield, VA

Home | Current Version | Previous Version | Graphics & Text | Print | Product List | Glossary On
Versions: 1 2 3 4 5 6 7 8 9 10 11 12 13 14 15 16 17 18 19 20 21 22 23 24 25 26 27 28
000
ASUS41 KAKQ 240710
RWRAKQ

REGIONAL WEATHER ROUNDUP
NATIONAL WEATHER SERVICE WAKEFIELD VA
300 AM EDT FRI OCT 24 2014

Note: "fair" indicates few or no clouds below 12,000 feet with no
significant weather and/or obstructions to visibility. * = Denotes
station may not report precipitation (e.g., rain,snow,etc.),
thunder or fog.

VAZ042-051-052>054-056-240800-
NORTHERN VIRGINIA

CITY           SKY/WX    TMP DP  RH WIND       PRES   REMARKS
WASH NATIONAL  CLEAR     59  39  47 NW13      29.93R
DULLES         PTCLDY    53  41  63 NW12      29.93F
FORT BELVOIR   CLEAR     55  41  58 W9        29.93S
QUANTICO       CLEAR     56  41  57 NW8       29.95S
FREDERICKSBRG* CLEAR     57  43  61 NW7       29.93F
STAFFORD*      CLEAR     51  41  68 NW6       29.97F
WARRENTON      CLEAR     55  47  76 W3        29.94S
CULPEPER*      CLEAR     55  43  62 N3        29.96R
MANASSAS*      CLEAR     55  43  62 N7        29.93F
LEESBURG*      CLEAR     54  45  71 NW10G18   29.94F
WINCHESTER     CLEAR     54  37  54 NW17      29.96F
FRONT ROYAL*   SUNNY     52  41  66 CALM      29.96F
LURAY*         SUNNY     52  43  71 SW5       29.99S
$$

VAZ048-049-060>072-079>083-240800-
CENTRAL AND SOUTH CENTRAL VIRGINIA...AND NORTH CENTRAL NORTH CAROLINA

CITY           SKY/WX    TMP DP  RH WIND       PRES   REMARKS
RICHMOND       CLEAR     53  42  66 NW8       29.94F
CHESTERFIELD*    N/A    N/A N/A N/A MISG        N/A
PETERSBURG*    CLEAR     49  41  72 W8        29.96S
HANOVER        CLEAR     48  42  80 W5        29.96F
TAPPAHANNOCK*  CLEAR     53  41  64 W5        29.93F
CHARLOTTSVILLE CLEAR     55  40  56 NW7       29.97S
ORANGE*        CLEAR     45  41  87 S3        29.97S
LOUISA*        CLEAR     46  43  87 W3        29.95S
FARMVILLE*     CLEAR     48  39  71 CALM      29.97S
CREWE*         SUNNY     50  40  68 W5        29.97S
FORT PICKETT*  SUNNY     47  41  79 NW6       29.97S
LUNENBURG*     SUNNY     49  42  78 W3        29.98S
SOUTH HILL*    CLEAR     52  43  71 NW3       30.03S
LAWRENCEVILLE* SUNNY     47  42  85 W3        29.96F
ROANOKE RAPIDS SUNNY     46  43  87 CALM      29.97F
RALEIGH        CLOUDY    49  41  74 NE5       30.00S
$$

VAZ088>098-240800-
SOUTHEAST VIRGINIA

CITY           SKY/WX    TMP DP  RH WIND       PRES   REMARKS
NORFOLK        CLEAR     59  43  55 VRB6      29.91F
VIRGINIA BEACH CLEAR     59  44  57 NW12      29.90F
NORFOLK NAVAL  CLEAR     58  47  66 NW10      29.93F
WEST POINT*    CLEAR     56  44  63 W8        29.94S
NEWPORT NEWS   CLEAR     57  44  62 NW9       29.92F
LANGLEY AFB    CLEAR     56  44  66 NW10      29.92S
FORT EUSTIS    CLEAR     56  45  66 NW9       29.91F
WILLIAMSBURG*  CLEAR     54  46  76 NW8       29.93F
HR EXEC AP*    SUNNY     50  43  76 W3        29.95S
FRANKLIN*      CLEAR     46  43  87 W5        29.96R
WAKEFIELD      CLEAR     50  43  77 SW3       29.95S
$$

VAZ020-022-025-037-045-240800-
WEST CENTRAL AND SOUTHWEST VIRGINIA

CITY           SKY/WX    TMP DP  RH WIND       PRES   REMARKS
STAUNTON*      CLEAR     39  36  87 CALM      30.02S
HOT SPRINGS VA CLEAR     40  38  91 NW18      30.00S
LYNCHBURG      CLEAR     41  38  89 S5        30.01F
DANVILLE       MOCLDY    52  40  63 NW10      30.02S
SOUTH BOSTON*  NOT AVBL
MARTINSVILLE   MOCLDY    43  42  95 NW8       30.06S
ROANOKE        CLEAR     43  38  82 NW8       30.06F
BLACKSBURG     CLEAR     37  37 100 CALM      30.09R
DUBLIN*        PTCLDY    46  43  87 W3        30.10R
MARION*        MOCLDY    37  36  94 W6        30.14R
HILLSVILLE*    CLOUDY    41  38  89 CALM      30.09R
RICHLANDS*     SUNNY     43  40  90 CALM      30.11F
WISE*          PTCLDY    41  41 100 CALM      30.12S
ABINGDON*      CLEAR     39  38  97 CALM      30.12R FOG
$$

MDZ021>025-VAZ099-100-240800-
SOUTHERN MARYLAND AND THE DELMARVA PENINSULA

CITY           SKY/WX    TMP DP  RH WIND       PRES   REMARKS
PATUXENT RIVER CLEAR     54  41  61 W14       29.89R
BAY BRIDGE APT   N/A     55  41  58 NW13      29.88R
LEONARDTOWN    CLEAR     52  41  66 W6        29.91S
DOVER          CLOUDY    56  45  66 NW10      29.82R
GEORGETOWN     CLOUDY    53  45  74 W3        29.85S
EASTON         CLEAR     55  48  76 CALM      29.90S
CAMBRIDGE      CLEAR     55  46  71 W7        29.87R
SALISBURY      CLEAR     54  46  74 W3        29.86R
OCEAN CITY     PTCLDY    52  45  77 NW7       29.84S
WALLOPS ISLAND CLEAR     54  48  80 NW7       29.87R
ACCOMACK*      CLEAR     55  46  71 W7        29.89R
$$

NCZ012>017-030>032-240800-
EASTERN NORTH CAROLINA

CITY           SKY/WX    TMP DP  RH WIND       PRES   REMARKS
ELIZABETH CITY CLEAR     53  45  74 W10       29.94S
AHOSKIE*       CLEAR     49  44  83 CALM      29.97F
EDENTON*       CLEAR     54  46  75 NW8       29.95S
CURRITUCK*     CLEAR     52  44  75 SW5       29.94R
KILL DEVIL HLS CLEAR     58  47  67 NW10G17   29.91S
MANTEO         CLEAR     58  47  67 NW10G16   29.93S
CAPE HATTERAS  CLEAR     61  49  64 NW10G18   29.94S
TARBORO*       MOSUNNY   47  44  90 CALM      29.98F
GOLDSBORO      PTCLDY    49  49  97 NW2       29.98S
WASHINGTON     CLEAR     50  46  84 CALM      29.98F
GREENVILLE     PTCLDY    50  45  81 CALM      29.99F
NEW BERN       CLEAR     51  46  83 CALM      29.99F
WILMINGTON     CLEAR     49  46  90 CALM      29.99S
$$

VAZ048-240800-
ELSEWHERE

CITY           SKY/WX    TMP DP  RH WIND       PRES   REMARKS
HARRISBURG PA  MOCLDY    56  41  57 NW14      29.88S
BALTIMORE      PTCLDY    54  40  59 W12       29.88S
ANNAPOLIS      CLEAR     57  41  55 NW7       29.88R
ANDREWS AFB    CLEAR     56  40  56 NW14G21   29.91R
WILMINGTON DE  CLOUDY    57  45  64 NW12      29.85R
PHILADELPHIA   MOCLDY    55  44  66 NW12      29.83S
WILDWOOD NJ*   CLOUDY    55  45  67 NW7G17    29.84R
ATLANTIC CITY  PTCLDY    48  44  86 W7        29.81R
HENDERSON NC   CLOUDY    48  40  72 NW3       30.00S
GREENSBORO     CLOUDY    48  40  73 NW3       30.03R
ROCKY MOUNT    PTCLDY    50  43  77 NW3       29.98F
FAYETTEVILLE   CLEAR     49  43  80 W6        30.01S
CHARLOTTE      MOCLDY    45  41  86 CALM      30.06R
$$

VAZ100-240800-
MARINE

STATION/POSITION TIME  TEMP    WIND        PRES    WAVE   SWELL
                       AIR SEA DIR/SP/G            HT/PER HT/PER
                 (UTC) (F)     (DEG/KT/KT) (MB)    (FT/S) (FT/S)
44066 TX TWR #4  0700   57 66  330/ 21/ 27 1004.9R  10/ 8
CAPE MAY NJ      0700   57 62  330/  9/ 19 1009.6R
LEWES DE         0700   55 58  290/  9/ 10 1010.0S
15NM E FENWICK I 0700   59 64  300/ 21/ 25 1009.3R   6/ 5   2/ 9
OCEAN-CITY-INLET 0700   54 61  330/  7/  9 1010.0F
WACHAPREAGUE VA  0700   55 60  250/  2/  4 1012.0R
THOMAS POINT MD  0700   57 62  290/ 13/ 15 1013.0R
GOOSES REEF MD   0700   59     320/ 17/ 21 1012.2S
COVE POINT MD    0700   57     320/ 13/ 19 1012.0R
SOLOMONS ISLAND  0700      64                N/A
BISHOPS HEAD MD  0700   59 56  300/ 15/ 17 1011.2R
PINEY POINT MD   0700          330/ 22/ 25   N/A
POTOMAC MD       0700   61     320/ 21/ 25 1011.7R
CAMBRIDGE MD     0700   59 60  300/ 10/ 13 1011.2R
LEWISETTA VA     0700   56 60  290/  8/ 10 1012.2F
RAPPAHANNOCK LGT 0700          300/ 22/ 25 1012.7S
STINGRAY PT      0700   59     310/ 19/ 23 1013.0S
YORK RVR RNG VA  0700   58     310/ 15/ 17 1012.6R
YORKTOWN VA      0700   56 64  290/ 12/ 14 1012.8F
JAMESTOWN VA     0700   57     340/ 14/ 16   N/A
DOMINION TERM VA 0700   58     330/ 14/ 18 1013.1F
KIPTOPEKE VA     0700      66  320/ 24/ 28   N/A
CHES BAY BRIDGE  0700   60 65  300/ 19/ 23 1012.4S
CHESAPEAKE LGHT  0600   61     320/ 26/ 28 1012.8F
WILLOUBY STN VA  0700   59     320/ 13/ 16 1011.7F
S CRANEY ISL VA  0700          270/  8/ 11 1012.9F
CAPE HENRY BUOY  0700      68                N/A     5/ 5
1ST LANDING BUOY 0700   61     310/ 19/ 23 1012.5S
CAPE CHARLES BUO 0700      67                N/A     4/ 4   2/ 7
64NM E OF VA BCH 0700   63 67  330/ 19/ 23 1011.1S   7/ 6   3/ 9
DUCK PIER NC     0700   57 66  300/ 15/ 19 1012.5R
44100 DUCK FRF   0700      68                N/A     5/ 8
44056 DUCK FRF   0700                        N/A     4/ 6
OREGON INLET NC  0700   60 64  300/ 11/ 17 1013.1S
HATTERAS NC      0700   63 64  310/ 17/ 19 1014.2S
DIAMOND SHLS NC  0700   64     320/ 19/ 21 1013.7F   4/ 7
CAPE LOOKOUT NC  0600   60     340/ 10/ 11 1014.7F
$$



USA.gov is the U.S. government's official web portal to all federal, state and local government web resources and services.